Temperature
17 18 18 19 19 19 19 19 19 18 17 16 15 15 14 14 13 13 13 12 12 11 11 11 11 11 10 10 9 9 8 8 8 8 8 8 8 8 7 7 7 7 7
16 17 17 18 18 18 18 18 18 17 17 16 15 15 14 13 13 13 12 12 11 11 11 11 11 10 10 9 8 8 7 7 6 6 6 6 7 6 6 6 6 5 5
15 16 17 17 17 17 18 18 17 17 16 15 14 14 13 13 12 12 12 11 11 11 11 10 10 10 9 8 7 7 6 5 5 4 4 3 2 3 4 4 4 4 4
15 16 16 17 17 17 17 17 16 16 15 14 14 14 13 13 12 12 11 11 10 10 10 10 9 9 8 7 6 6 5 5 4 3 3 2 0 -0 -0 2 3 3 3
15 16 17 17 17 16 16 16 15 15 14 13 13 13 13 13 12 11 11 11 10 10 10 9 9 8 7 6 5 5 4 4 3 3 2 1 0 -1 -3 -3 -0 1 1
15 16 16 16 16 15 15 15 14 14 13 13 12 13 13 12 12 11 11 10 10 9 9 8 8 7 6 5 5 4 4 3 3 2 1 0 -1 -2 -4 -4 -4 -3 -2
15 15 15 15 15 15 14 14 13 13 12 12 12 12 12 12 11 11 10 10 9 9 8 7 7 6 5 4 4 3 3 3 2 1 0 -1 -2 -3 -3 -4 -5 -5 -4
14 14 15 15 15 14 14 13 13 12 12 12 12 11 11 11 10 10 9 9 8 8 7 6 6 5 4 4 3 3 2 2 1 1 -0 -1 -2 -3 -4 -5 -6 -7 -6
12 13 14 14 14 14 13 13 12 12 11 11 11 11 10 10 10 9 9 8 8 7 6 6 5 4 4 3 3 2 2 1 1 0 -1 -1 -3 -4 -4 -5 -6 -7 -8
10 11 12 13 13 13 12 12 11 11 11 10 10 10 10 9 9 9 8 8 7 6 5 5 4 3 3 2 2 2 1 1 0 -0 -1 -2 -3 -4 -5 -6 -6 -7 -8
9 9 9 11 11 11 11 11 11 11 10 10 10 9 9 9 8 8 7 7 6 5 5 4 3 3 2 2 1 1 1 0 -0 -1 -2 -3 -4 -5 -6 -6 -7 -7 -8
8 7 7 9 10 10 10 10 10 10 10 9 9 9 9 8 8 7 7 6 5 5 4 3 3 2 2 1 1 1 0 -0 -1 -2 -3 -4 -5 -6 -6 -7 -7 -8 -8
6 6 7 8 9 10 10 10 10 9 9 9 9 8 8 7 7 6 6 5 5 4 3 2 2 2 1 1 0 -0 -0 -1 -2 -3 -4 -5 -6 -6 -7 -7 -8 -9 -9
5 5 7 8 9 9 9 9 9 9 9 8 8 8 7 7 6 6 5 4 4 3 2 2 2 1 1 0 -0 -1 -1 -2 -3 -4 -5 -6 -6 -7 -8 -8 -9 -9 -9
5 5 7 8 9 9 9 9 8 8 8 8 7 7 6 6 6 5 4 3 3 2 2 1 1 1 0 -0 -1 -2 -3 -3 -4 -5 -6 -6 -7 -8 -9 -9 -9 -9 -9
5 5 7 8 9 9 9 8 8 8 7 7 7 6 6 5 5 4 3 3 2 2 1 1 0 0 -0 -1 -2 -3 -4 -5 -5 -6 -6 -7 -7 -8 -9 -9 -9 -9 -9
5 6 7 9 9 9 8 8 8 7 7 6 6 6 5 5 4 3 2 2 1 1 1 0 -0 -1 -1 -2 -2 -3 -5 -6 -6 -7 -7 -8 -8 -8 -9 -9 -9 -9 -9
6 7 8 8 8 8 8 8 7 7 6 6 5 5 4 4 3 2 2 1 1 1 0 -0 -1 -1 -2 -2 -3 -4 -6 -6 -7 -7 -8 -8 -8 -9 -9 -9 -9 -9 -9
8 8 9 9 9 8 8 7 6 6 5 5 5 4 4 3 2 2 1 1 0 0 -0 -1 -1 -2 -2 -3 -4 -5 -6 -7 -7 -8 -8 -9 -9 -10 -9 -9 -9 -10 -9
8 8 8 9 8 8 7 7 6 5 5 5 4 3 3 2 1 1 1 0 -0 -1 -1 -1 -2 -3 -3 -4 -5 -6 -8 -8 -8 -8 -9 -9 -10 -10 -9 -9 -10 -10 -10
9 9 9 8 8 8 7 6 6 5 4 4 3 2 2 1 1 0 0 -0 -1 -1 -2 -2 -2 -3 -4 -5 -6 -7 -8 -9 -9 -9 -9 -9 -10 -10 -10 -10 -10 -10 -10
8 8 8 8 7 7 7 6 5 4 4 3 2 2 1 1 0 -0 -0 -1 -1 -2 -2 -3 -3 -4 -5 -6 -7 -8 -9 -9 -9 -10 -10 -10 -10 -10 -10 -10 -10 -10 -11
8 8 8 7 6 6 6 6 5 4 3 2 2 1 1 0 -0 -1 -1 -1 -2 -3 -3 -4 -4 -5 -6 -6 -7 -8 -9 -9 -10 -10 -10 -10 -10 -10 -9 -9 -10 -10 -10
7 7 7 6 5 5 5 5 4 3 2 2 1 0 0 -0 -1 -1 -2 -2 -3 -3 -4 -5 -6 -7 -7 -7 -8 -9 -10 -10 -10 -10 -10 -10 -9 -9 -9 -9 -9 -9 -10
6 6 6 6 5 4 4 3 3 2 2 1 0 -0 -1 -1 -1 -2 -2 -3 -4 -5 -6 -7 -8 -8 -8 -9 -10 -10 -10 -10 -10 -11 -10 -9 -9 -9 -9 -9 -9 -9 -9
6 6 6 5 4 3 3 2 2 1 1 0 -0 -1 -1 -2 -2 -2 -3 -4 -4 -5 -6 -7 -8 -8 -8 -9 -9 -10 -10 -10 -10 -10 -10 -10 -10 -10 -10 -10 -9 -9 -9
Wind_Speed
12 8 7 7 6 6 7 9 11 12 13 12 11 10 8 8 8 8 12 14 14 13 11 8 7 7 8 7 6 4 6 6 6 5 6 4 3 3 1 2 1 3 9
10 8 7 7 7 8 8 9 11 12 12 10 7 6 8 8 8 7 11 14 14 12 11 9 7 6 7 8 8 6 3 5 6 4 4 5 6 5 4 4 3 5 8
14 11 9 9 8 8 10 10 11 11 11 12 13 13 9 7 6 8 7 9 13 13 13 11 8 6 7 6 6 6 5 4 4 5 4 3 4 5 5 5 4 5 5
15 12 11 10 10 9 8 10 11 12 13 15 16 18 12 9 6 7 8 9 12 12 14 13 11 7 6 6 6 5 4 3 3 3 2 1 3 3 6 5 4 5 8
16 15 14 13 10 9 10 11 12 13 12 12 15 15 13 10 10 10 11 10 8 10 12 12 10 7 5 6 6 5 4 3 2 1 2 2 2 2 3 7 6 7 5
16 13 11 11 10 10 10 12 14 12 11 12 13 16 19 18 15 12 10 8 6 6 9 11 9 7 5 5 4 4 4 2 2 1 0 1 2 2 4 6 12 12 7
14 14 16 16 15 15 14 13 15 13 12 12 13 15 17 17 16 13 11 9 6 5 6 6 5 5 5 5 4 3 3 2 1 1 1 2 3 3 4 7 11 12 8
14 17 19 19 18 17 16 15 15 14 13 13 13 13 14 11 10 10 9 8 7 6 5 6 6 6 5 4 4 2 2 1 2 3 3 3 4 4 4 5 9 14 7
15 17 18 18 18 18 17 17 17 15 14 14 15 13 12 12 12 10 9 8 7 6 6 6 5 4 4 4 3 2 3 3 3 4 5 5 5 5 6 6 6 7 14
14 15 16 16 15 15 15 15 16 16 15 15 13 12 12 12 12 11 10 9 7 6 6 6 4 4 3 3 3 3 3 4 4 4 6 6 6 6 6 7 7 8 12
17 17 15 15 15 16 16 16 16 16 15 14 14 14 12 12 11 10 9 8 7 7 6 5 4 3 3 3 3 4 4 5 6 6 7 8 8 7 7 7 8 9 10
16 16 16 17 17 17 16 16 15 15 14 14 14 14 12 12 11 10 9 8 7 6 5 4 4 3 3 4 4 5 6 6 7 8 7 8 8 8 8 8 9 10 10
17 16 16 16 16 16 15 15 15 15 14 14 14 13 12 11 11 9 8 7 7 6 5 4 4 3 4 4 5 6 7 7 7 7 8 8 9 10 9 10 10 10 12
17 16 15 14 14 14 15 15 14 14 14 14 14 13 11 10 10 9 8 7 6 6 4 3 3 3 4 5 6 6 7 6 6 7 7 8 9 11 11 11 10 10 12
16 16 16 15 14 14 14 14 14 13 14 14 13 11 10 10 9 8 7 7 6 5 3 3 3 4 4 5 7 6 6 6 6 7 8 9 14 17 15 14 12 13 13
16 15 16 16 16 16 15 15 14 12 13 13 12 11 10 9 8 8 7 6 5 4 3 3 4 5 5 11 15 12 6 5 7 9 9 10 13 17 23 26 25 23 19
16 16 16 16 15 15 16 16 13 13 13 13 12 10 10 9 8 7 6 5 4 3 3 3 4 6 8 14 16 16 9 6 8 10 10 12 13 18 13 20 25 21 24
15 15 14 14 13 13 14 14 14 13 13 12 11 10 9 9 7 7 6 4 2 2 2 4 5 6 8 14 16 18 9 7 9 10 11 12 12 14 19 17 15 12 12
12 13 13 15 16 16 16 16 14 13 13 12 11 9 9 9 7 6 4 3 2 2 3 4 5 6 9 14 17 18 7 7 9 10 10 12 12 22 27 19 16 15 13
13 14 15 16 16 15 16 17 15 13 12 11 10 9 9 8 7 5 3 2 1 2 4 5 5 7 8 14 18 19 7 8 9 8 9 16 20 26 28 17 14 16 17
15 16 17 15 15 16 17 16 15 12 11 11 11 9 8 8 7 5 3 2 2 4 5 6 7 7 9 13 18 20 9 9 10 11 9 10 24 27 28 23 13 19 21
16 16 16 14 13 14 16 16 13 12 12 12 11 9 8 6 5 5 3 3 3 5 5 6 7 6 7 11 16 20 19 19 12 12 11 14 26 27 26 19 20 25 21
14 14 17 16 12 11 14 16 13 13 13 12 10 8 7 6 5 4 3 3 3 3 5 5 6 7 6 9 18 20 22 23 14 12 20 24 26 23 17 19 24 19 12
14 15 17 16 13 11 12 14 14 13 13 11 9 7 6 5 4 3 2 2 3 4 5 6 7 8 7 8 8 8 11 16 14 12 16 21 21 18 17 17 14 11 11
12 13 15 16 14 13 13 12 12 13 12 10 7 6 5 4 3 2 2 3 3 5 7 5 5 8 8 12 21 16 12 12 13 15 8 9 11 11 11 11 11 11 12
13 14 15 15 14 14 13 10 10 11 11 8 6 4 4 3 2 3 4 6 6 11 12 13 13 11 16 21 21 21 22 22 21 14 10 11 11 12 13 13 14 13 12
Wind_Direction
253 248 230 204 183 172 162 156 148 148 146 144 137 128 119 111 99 95 100 100 100 99 98 94 80 72 72 60 45 45 34 18 360 0 340 339 353 350 52 26 3 19 20
249 232 208 189 185 175 163 152 152 152 151 145 131 120 119 107 99 96 93 98 100 99 97 93 88 78 78 62 48 45 45 21 22 28 7 348 338 341 345 346 356 12 10
236 226 203 195 184 179 169 158 151 145 137 131 122 117 109 106 104 100 92 90 97 97 97 93 89 78 77 72 60 52 61 32 14 39 56 19 314 310 314 320 341 356 350
225 215 196 189 186 179 160 147 143 141 141 140 142 143 142 136 127 123 112 98 95 95 92 90 86 80 76 73 63 62 61 65 27 4 28 225 239 291 310 301 306 321 317
217 207 194 186 172 157 150 143 138 139 143 144 146 137 127 122 124 118 111 101 90 87 87 87 84 79 76 76 68 63 60 69 74 18 340 331 312 255 275 294 304 304 284
211 197 175 156 148 143 141 142 140 139 139 140 141 138 135 135 133 128 119 109 97 82 81 84 81 79 76 72 68 66 62 59 58 37 278 253 287 290 279 288 306 307 296
195 176 163 160 157 153 150 147 143 139 136 134 133 137 137 137 137 133 128 121 107 93 82 83 79 75 75 74 64 54 37 37 22 308 257 238 240 246 264 289 304 304 298
186 176 171 165 162 157 153 149 145 139 135 131 127 127 126 124 124 122 121 114 111 107 99 90 83 76 69 61 48 34 356 356 312 283 263 254 254 250 258 274 303 313 303
181 174 167 163 159 156 154 150 144 137 133 130 126 121 118 119 118 113 107 106 107 106 96 90 81 68 56 42 26 356 328 314 283 273 265 256 256 254 257 259 268 291 306
170 164 161 157 153 148 141 139 139 135 131 128 127 123 117 116 116 113 108 105 100 98 98 87 75 56 37 18 1 328 313 305 288 270 266 265 262 261 260 259 260 260 280
164 159 152 145 138 136 137 135 133 130 128 124 121 119 116 114 110 108 107 107 103 100 95 87 71 46 22 358 343 320 308 302 295 291 283 277 276 272 267 264 264 265 270
150 146 142 138 138 138 137 135 134 130 127 124 120 118 117 113 109 108 107 107 103 97 94 85 65 34 5 340 326 313 310 299 296 294 292 288 291 280 277 274 272 273 271
136 135 137 139 139 138 136 134 131 128 125 123 121 119 117 114 113 112 110 106 103 95 84 74 52 13 340 322 308 295 292 290 289 291 291 290 289 288 285 280 280 280 285
139 140 139 137 136 135 134 131 127 127 126 123 122 121 120 119 117 115 110 106 104 95 79 61 32 352 323 306 294 289 288 289 292 291 288 287 286 286 287 291 284 291 295
144 146 143 139 135 133 130 129 128 127 127 124 122 122 120 117 114 111 107 102 94 88 73 46 10 344 319 305 306 299 295 295 295 293 287 287 300 305 306 308 308 305 300
153 150 146 143 143 141 138 133 131 129 126 124 124 125 122 117 114 111 107 99 87 72 48 23 354 336 328 322 326 326 306 292 294 298 295 294 297 302 312 311 307 305 306
158 156 155 152 148 145 142 138 134 129 124 125 127 127 123 118 115 112 102 92 81 53 21 356 340 323 316 328 329 325 324 300 293 293 297 304 307 312 298 298 304 305 305
158 154 149 142 136 132 132 128 128 128 127 127 128 127 123 118 113 104 95 84 71 35 358 332 325 319 321 332 328 324 326 296 287 287 289 293 295 301 307 307 309 303 300
149 145 141 138 137 137 136 132 129 128 130 132 133 130 126 121 113 103 92 80 49 8 335 321 324 322 319 328 325 325 305 295 292 291 292 302 302 307 314 318 314 311 308
135 135 134 134 137 139 138 135 136 136 138 136 130 123 120 118 113 106 95 71 33 345 333 326 322 314 307 319 325 325 303 303 302 298 293 309 314 314 320 321 317 316 313
131 132 135 139 142 143 139 137 138 138 133 126 119 114 112 113 111 101 86 56 20 357 343 326 316 308 310 321 324 323 322 311 312 314 312 307 316 320 323 325 319 311 316
127 131 130 130 134 140 137 133 132 128 124 120 115 112 107 104 102 93 72 44 19 354 337 322 315 303 302 315 319 323 324 323 318 315 313 314 320 325 325 324 317 320 325
121 123 125 123 122 128 133 131 129 127 122 116 114 111 103 92 90 84 57 23 6 344 321 310 309 310 306 310 319 321 323 325 322 312 316 320 324 326 324 318 320 325 320
116 122 122 122 116 110 114 123 126 124 120 118 115 112 104 91 68 60 48 12 336 320 312 310 310 309 308 306 304 306 317 323 320 315 317 324 324 322 319 320 319 315 310
114 119 121 119 114 110 110 116 121 120 116 114 112 106 97 90 62 32 351 321 277 282 310 303 302 315 313 315 324 328 324 325 321 326 324 323 322 323 322 319 317 317 316
111 110 111 113 111 111 109 109 114 118 119 115 109 102 94 78 54 8 335 324 321 323 324 324 323 318 316 322 328 329 329 330 331 333 325 321 321 320 319 319 318 317 316
Height
1449 1452 1455 1457 1459 1461 1463 1465 1468 1470 1472 1475 1478 1482 1487 1492 1495 1498 1501 1503 1505 1506 1507 1507 1507 1506 1504 1502 1500 1498 1496 1493 1491 1488 1486 1485 1484 1482 1481 1480 1479 1477 1475
1442 1445 1448 1450 1452 1455 1457 1460 1463 1465 1467 1471 1474 1479 1483 1488 1492 1495 1498 1501 1503 1504 1505 1505 1504 1503 1502 1500 1498 1496 1493 1491 1488 1486 1482 1481 1480 1479 1479 1477 1475 1472 1469
1435 1438 1441 1444 1447 1450 1453 1455 1458 1461 1464 1467 1471 1475 1480 1485 1489 1493 1496 1498 1501 1503 1503 1503 1502 1501 1499 1497 1495 1493 1492 1490 1488 1485 1484 1482 1478 1473 1469 1469 1467 1464 1462
1427 1430 1434 1438 1442 1445 1449 1452 1455 1458 1461 1464 1468 1472 1477 1482 1486 1490 1494 1497 1499 1501 1501 1501 1500 1499 1497 1495 1493 1492 1490 1488 1486 1484 1483 1482 1478 1473 1464 1460 1460 1457 1454
1417 1421 1426 1432 1437 1441 1444 1448 1451 1454 1458 1463 1467 1472 1476 1480 1484 1488 1492 1495 1497 1498 1499 1499 1498 1496 1495 1493 1492 1490 1488 1486 1484 1482 1479 1477 1475 1472 1466 1455 1449 1447 1445
1407 1412 1418 1425 1430 1435 1440 1444 1448 1452 1456 1461 1466 1470 1474 1478 1482 1486 1490 1493 1495 1496 1497 1496 1495 1494 1493 1492 1490 1489 1487 1484 1482 1479 1476 1474 1471 1468 1463 1454 1444 1438 1434
1397 1402 1408 1416 1423 1429 1435 1440 1444 1449 1454 1460 1465 1470 1474 1478 1482 1485 1489 1492 1493 1494 1494 1494 1493 1492 1491 1490 1488 1487 1484 1482 1479 1477 1474 1471 1468 1465 1460 1453 1442 1432 1425
1388 1393 1400 1408 1416 1423 1430 1436 1441 1447 1452 1458 1464 1469 1473 1477 1481 1485 1488 1490 1492 1492 1492 1492 1491 1490 1489 1487 1486 1484 1481 1479 1476 1473 1470 1467 1464 1461 1456 1451 1443 1429 1419
1381 1386 1393 1402 1410 1418 1425 1432 1438 1445 1451 1457 1462 1467 1472 1477 1480 1484 1486 1488 1490 1490 1490 1489 1489 1488 1486 1485 1483 1481 1478 1476 1473 1469 1466 1463 1459 1456 1452 1448 1443 1436 1420
1377 1382 1389 1397 1406 1414 1423 1431 1438 1444 1450 1456 1461 1466 1471 1476 1479 1482 1485 1487 1487 1488 1488 1487 1486 1485 1484 1482 1480 1477 1475 1472 1468 1465 1461 1457 1453 1450 1446 1442 1438 1433 1424
1372 1379 1386 1394 1403 1412 1421 1429 1436 1442 1449 1455 1461 1466 1470 1474 1478 1481 1483 1485 1485 1485 1485 1485 1484 1483 1481 1479 1476 1474 1471 1467 1464 1460 1455 1451 1447 1443 1439 1434 1430 1425 1419
1370 1377 1384 1392 1401 1411 1419 1427 1434 1441 1448 1454 1460 1465 1469 1473 1477 1479 1481 1482 1483 1483 1483 1482 1481 1480 1478 1475 1472 1469 1466 1462 1458 1454 1449 1445 1440 1436 1431 1426 1421 1417 1412
1371 1378 1385 1393 1401 1410 1418 1426 1434 1441 1448 1454 1459 1464 1469 1472 1475 1478 1479 1480 1481 1481 1480 1480 1478 1476 1474 1471 1468 1464 1461 1457 1452 1448 1443 1438 1433 1428 1424 1419 1414 1409 1404
1372 1378 1386 1394 1402 1410 1418 1426 1434 1441 1448 1454 1459 1464 1468 1471 1474 1476 1477 1478 1478 1478 1478 1477 1475 1473 1470 1467 1463 1459 1455 1451 1447 1442 1437 1432 1427 1421 1416 1412 1407 1402 1396
1375 1381 1387 1394 1403 1411 1419 1427 1434 1442 1448 1454 1459 1463 1467 1470 1472 1474 1475 1476 1476 1476 1475 1473 1471 1469 1466 1462 1458 1454 1449 1445 1440 1436 1432 1426 1421 1417 1412 1408 1401 1395 1389
1377 1383 1389 1396 1403 1411 1419 1427 1435 1442 1448 1454 1458 1462 1466 1468 1470 1472 1473 1474 1474 1473 1472 1470 1468 1465 1461 1457 1453 1449 1444 1439 1434 1429 1425 1420 1415 1410 1406 1400 1395 1391 1384
1377 1383 1389 1397 1404 1412 1420 1427 1435 1442 1449 1454 1458 1462 1465 1467 1469 1470 1471 1471 1471 1470 1469 1466 1463 1460 1456 1452 1448 1444 1439 1434 1429 1424 1418 1413 1409 1404 1397 1391 1387 1383 1378
1379 1385 1391 1399 1406 1414 1422 1430 1437 1443 1448 1453 1457 1461 1463 1465 1467 1468 1469 1469 1469 1467 1465 1462 1459 1455 1452 1447 1443 1438 1433 1428 1424 1419 1413 1407 1401 1396 1391 1385 1379 1373 1368
1380 1386 1393 1400 1407 1415 1423 1430 1437 1443 1448 1453 1456 1459 1462 1464 1465 1466 1467 1467 1466 1464 1462 1458 1455 1451 1447 1442 1438 1433 1427 1422 1418 1413 1408 1402 1396 1390 1386 1379 1372 1364 1358
1382 1388 1394 1401 1409 1416 1424 1430 1437 1443 1448 1452 1455 1458 1460 1462 1464 1465 1465 1464 1463 1460 1458 1455 1451 1446 1442 1437 1433 1428 1422 1417 1411 1407 1402 1397 1391 1385 1380 1373 1365 1357 1350
1383 1389 1395 1402 1409 1416 1424 1430 1437 1442 1447 1451 1454 1457 1459 1461 1462 1463 1462 1461 1459 1457 1454 1451 1448 1443 1438 1433 1428 1423 1418 1413 1407 1401 1395 1390 1385 1380 1374 1367 1360 1353 1347
1385 1390 1396 1403 1410 1417 1424 1431 1437 1443 1447 1451 1454 1456 1458 1460 1461 1461 1460 1458 1456 1453 1449 1446 1442 1439 1434 1429 1423 1419 1414 1409 1403 1396 1389 1384 1379 1373 1366 1360 1354 1349 1342
1386 1392 1398 1405 1412 1420 1426 1432 1438 1443 1447 1450 1453 1456 1457 1459 1459 1458 1457 1455 1452 1449 1445 1441 1436 1432 1428 1424 1419 1414 1409 1403 1398 1391 1385 1379 1373 1366 1360 1354 1349 1343 1336
1389 1395 1401 1407 1414 1422 1429 1434 1439 1443 1447 1450 1453 1455 1456 1457 1457 1456 1454 1451 1448 1445 1440 1436 1432 1427 1423 1418 1413 1408 1403 1397 1392 1385 1379 1373 1367 1361 1356 1350 1344 1338 1333
1394 1400 1405 1411 1417 1424 1431 1436 1441 1444 1447 1450 1453 1454 1455 1455 1454 1453 1451 1448 1445 1442 1437 1433 1428 1423 1417 1414 1410 1405 1398 1393 1387 1380 1373 1367 1361 1355 1350 1344 1339 1334 1328
1399 1404 1410 1416 1422 1428 1433 1438 1442 1445 1448 1450 1452 1453 1453 1453 1452 1450 1448 1445 1443 1439 1435 1430 1426 1420 1416 1410 1405 1400 1394 1388 1382 1376 1370 1363 1358 1352 1346 1340 1334 1329 1324